TimeCDT,TemperatureF,Dew PointF,Humidity,Sea Level PressureIn,VisibilityMPH,Wind Direction,Wind SpeedMPH,Gust SpeedMPH,PrecipitationIn,Events,Conditions,WindDirDegrees,DateUTC
12:53 AM,73.0,70.0,90,30.06,8.0,North,3.5,-,N/A,,Clear,350,2013-09-16 05:53:00
1:53 AM,73.0,70.0,90,30.06,8.0,Calm,Calm,-,N/A,,Clear,0,2013-09-16 06:53:00
2:53 AM,73.0,70.0,90,30.04,6.0,Calm,Calm,-,N/A,,Clear,0,2013-09-16 07:53:00
3:53 AM,72.0,69.1,91,30.04,6.0,Calm,Calm,-,N/A,,Clear,0,2013-09-16 08:53:00
4:53 AM,71.1,69.1,93,30.04,7.0,Calm,Calm,-,N/A,,Clear,0,2013-09-16 09:53:00
5:53 AM,70.0,66.9,90,30.04,6.0,Calm,Calm,-,N/A,,Clear,0,2013-09-16 10:53:00
6:53 AM,71.1,69.1,93,30.06,5.0,Calm,Calm,-,N/A,,Clear,0,2013-09-16 11:53:00
7:53 AM,75.0,71.1,87,30.07,6.0,Calm,Calm,-,N/A,,Clear,0,2013-09-16 12:53:00
8:53 AM,78.1,72.0,81,30.08,8.0,North,4.6,-,N/A,,Clear,10,2013-09-16 13:53:00
9:53 AM,82.0,72.0,71,30.09,10.0,North,8.1,-,N/A,,Clear,10,2013-09-16 14:53:00
10:53 AM,84.9,72.0,65,30.09,10.0,Variable,4.6,-,N/A,,Clear,0,2013-09-16 15:53:00
11:53 AM,88.0,70.0,55,30.09,10.0,East,10.4,17.3,N/A,,Clear,90,2013-09-16 16:53:00
12:53 PM,91.0,69.1,48,30.08,10.0,ENE,5.8,-,N/A,,Clear,70,2013-09-16 17:53:00
1:53 PM,91.0,69.1,48,30.06,10.0,East,10.4,-,N/A,,Mostly Cloudy,80,2013-09-16 18:53:00
2:53 PM,91.9,66.9,44,30.03,10.0,Variable,5.8,-,N/A,,Partly Cloudy,0,2013-09-16 19:53:00
3:53 PM,91.9,66.9,44,30.01,10.0,East,8.1,-,N/A,,Partly Cloudy,100,2013-09-16 20:53:00
4:53 PM,91.0,66.0,44,30.01,10.0,ENE,6.9,-,N/A,,Clear,70,2013-09-16 21:53:00
5:53 PM,91.0,66.0,44,30.01,10.0,ENE,5.8,-,N/A,,Clear,70,2013-09-16 22:53:00
6:53 PM,87.1,68.0,53,30.01,10.0,Calm,Calm,-,N/A,,Clear,0,2013-09-16 23:53:00
7:53 PM,80.1,69.1,69,30.02,10.0,Calm,Calm,-,N/A,,Clear,0,2013-09-17 00:53:00
8:53 PM,79.0,69.1,72,30.04,9.0,Calm,Calm,-,N/A,,Clear,0,2013-09-17 01:53:00
9:53 PM,79.0,69.1,72,30.05,9.0,Calm,Calm,-,N/A,,Clear,0,2013-09-17 02:53:00
10:53 PM,77.0,69.1,76,30.06,8.0,Calm,Calm,-,N/A,,Clear,0,2013-09-17 03:53:00
11:53 PM,75.0,69.1,82,30.06,9.0,Calm,Calm,-,N/A,,Clear,0,2013-09-17 04:53:00